| time (UTC) | temp F | wind direction | speed knots | gust knots | rain 1hr in | rain 24hr in | rain mn in | humidity % | barometer mb |
| 20260502195332 | 61 | 8 | 0.0 | 0.0 | 0.00 | 0.00 | 0.00 | 64 | 1017.1 |
| 20260502194831 | 61 | 8 | 0.0 | 0.0 | 0.00 | 0.00 | 0.00 | 64 | 1017.0 |
| 20260502194331 | 61 | 8 | 0.0 | 0.0 | 0.00 | 0.00 | 0.00 | 64 | 1017.0 |
| 20260502193831 | 61 | 8 | 0.0 | 0.0 | 0.00 | 0.00 | 0.00 | 63 | 1017.0 |
| 20260502193332 | 62 | 8 | 0.0 | 0.0 | 0.00 | 0.00 | 0.00 | 62 | 1017.0 |
| 20260502192825 | 62 | 8 | 0.0 | 0.0 | 0.00 | 0.00 | 0.00 | 60 | 1017.0 |
| 20260502192322 | 62 | 8 | 0.0 | 0.0 | 0.00 | 0.00 | 0.00 | 59 | 1017.0 |
| 20260502191310 | 63 | 8 | 0.0 | 0.0 | 0.00 | 0.00 | 0.00 | 59 | 1017.0 |
| 20260502190805 | 64 | 8 | 0.0 | 0.0 | 0.00 | 0.00 | 0.00 | 57 | 1017.0 |
| 20260502185804 | 65 | 8 | 0.0 | 0.0 | 0.00 | 0.00 | 0.00 | 57 | 1016.9 |
| 20260502185305 | 65 | 8 | 0.0 | 0.0 | 0.00 | 0.00 | 0.00 | 57 | 1016.9 |
| 20260502184804 | 65 | 8 | 0.0 | 0.0 | 0.00 | 0.00 | 0.00 | 55 | 1016.7 |
| 20260502182305 | 68 | 8 | 0.0 | 0.0 | 0.00 | 0.00 | 0.00 | 51 | 1016.7 |
| 20260502181303 | 69 | 8 | 0.0 | 0.0 | 0.00 | 0.00 | 0.00 | 48 | 1016.7 |
| 20260502180802 | 71 | 8 | 0.0 | 0.0 | 0.00 | 0.00 | 0.00 | 45 | 1016.6 |
| 20260502170243 | 78 | 8 | 0.0 | 0.0 | 0.00 | 0.00 | 0.00 | 34 | 1016.7 |
| 20260502164232 | 79 | 22 | 0.0 | 0.0 | 0.00 | 0.00 | 0.00 | 31 | 1016.7 |
| 20260502163732 | 80 | 22 | 0.0 | 0.0 | 0.00 | 0.00 | 0.00 | 31 | 1016.8 |
| 20260502163232 | 79 | 22 | 0.0 | 0.0 | 0.00 | 0.00 | 0.00 | 31 | 1016.8 |
| 20260502162231 | 79 | 22 | 0.0 | 0.0 | 0.00 | 0.00 | 0.00 | 29 | 1016.8 |
| 20260502161730 | 79 | 22 | 0.0 | 0.0 | 0.00 | 0.00 | 0.00 | 31 | 1016.9 |
| 20260502161227 | 79 | 22 | 0.0 | 0.0 | 0.00 | 0.00 | 0.00 | 30 | 1017.0 |
| 20260502160725 | 79 | 22 | 0.0 | 5.2 | 0.00 | 0.00 | 0.00 | 31 | 1017.1 |
| 20260502160224 | 80 | 22 | 0.0 | 5.2 | 0.00 | 0.00 | 0.00 | 30 | 1017.0 |
| 20260502151635 | 79 | 25 | 0.0 | 0.0 | 0.00 | 0.00 | 0.00 | 30 | 1017.5 |
| 20260502151133 | 80 | 25 | 0.0 | 3.5 | 0.00 | 0.00 | 0.00 | 30 | 1017.4 |
| 20260502150624 | 82 | 25 | 0.9 | 3.5 | 0.00 | 0.00 | 0.00 | 29 | 1017.6 |
| 20260502150126 | 81 | 19 | 0.0 | 1.7 | 0.00 | 0.00 | 0.00 | 30 | 1017.5 |
| 20260502130537 | 78 | 20 | 0.9 | 6.1 | 0.00 | 0.00 | 0.00 | 35 | 1019.4 |
| 20260502123032 | 79 | 345 | 0.0 | 3.5 | 0.00 | 0.00 | 0.00 | 38 | 1019.9 |
| 20260502122533 | 76 | 40 | 0.9 | 3.5 | 0.00 | 0.00 | 0.00 | 42 | 1020.0 |
| 20260502122029 | 76 | 236 | 0.0 | 0.9 | 0.00 | 0.00 | 0.00 | 40 | 1020.1 |
| 20260502121525 | 77 | 303 | 0.0 | 4.3 | 0.00 | 0.00 | 0.00 | 39 | 1020.1 |
| 20260502121022 | 78 | 303 | 0.0 | 4.3 | 0.00 | 0.00 | 0.00 | 40 | 1020.2 |
| 20260502120513 | 76 | 145 | 0.0 | 4.3 | 0.00 | 0.00 | 0.00 | 42 | 1020.3 |
| 20260502115504 | 77 | 49 | 0.9 | 2.6 | 0.00 | 0.00 | 0.00 | 38 | 1020.4 |
| 20260502115005 | 75 | 95 | 0.0 | 2.6 | 0.00 | 0.00 | 0.00 | 41 | 1020.6 |
| 20260502114503 | 76 | 212 | 0.0 | 0.0 | 0.00 | 0.00 | 0.00 | 41 | 1020.6 |
| 20260502113006 | 74 | 62 | 0.0 | 3.5 | 0.00 | 0.00 | 0.00 | 45 | 1020.8 |
| 20260502112502 | 74 | 240 | 0.0 | 2.6 | 0.00 | 0.00 | 0.00 | 44 | 1020.9 |
| 20260502111959 | 74 | 235 | 0.0 | 0.0 | 0.00 | 0.00 | 0.00 | 45 | 1021.1 |
| 20260502111451 | 73 | 235 | 0.0 | 0.0 | 0.00 | 0.00 | 0.00 | 46 | 1021.1 |
| 20260502110943 | 72 | 235 | 0.0 | 3.5 | 0.00 | 0.00 | 0.00 | 46 | 1021.2 |
| 20260502110439 | 72 | 235 | 0.0 | 3.5 | 0.00 | 0.00 | 0.00 | 46 | 1021.4 |
| 20260502105936 | 72 | 224 | 0.0 | 0.0 | 0.00 | 0.00 | 0.00 | 47 | 1021.4 |
| 20260502104930 | 71 | 224 | 1.7 | 3.5 | 0.00 | 0.00 | 0.00 | 48 | 1021.5 |
| 20260502104427 | 71 | 197 | 0.0 | 2.6 | 0.00 | 0.00 | 0.00 | 48 | 1021.5 |
| 20260502103924 | 70 | 197 | 0.0 | 3.5 | 0.00 | 0.00 | 0.00 | 49 | 1021.6 |
| 20260502103420 | 70 | 241 | 0.0 | 4.3 | 0.00 | 0.00 | 0.00 | 49 | 1021.7 |
| 20260502102916 | 70 | 249 | 1.7 | 4.3 | 0.00 | 0.00 | 0.00 | 50 | 1021.8 |
| 20260502102413 | 70 | 242 | 0.0 | 3.5 | 0.00 | 0.00 | 0.00 | 49 | 1021.8 |
| 20260502101404 | 70 | 270 | 0.9 | 6.1 | 0.00 | 0.00 | 0.00 | 51 | 1022.0 |
| 20260502100907 | 69 | 251 | 2.6 | 6.1 | 0.00 | 0.00 | 0.00 | 49 | 1022.1 |
| 20260502100406 | 70 | 238 | 0.0 | 5.2 | 0.00 | 0.00 | 0.00 | 50 | 1022.2 |
| 20260502091341 | 67 | 244 | 3.5 | 7.8 | 0.00 | 0.00 | 0.00 | 52 | 1022.6 |
| 20260502090833 | 67 | 244 | 0.9 | 5.2 | 0.00 | 0.00 | 0.00 | 51 | 1022.7 |
| 20260502071308 | 56 | 16 | 0.0 | 0.0 | 0.00 | 0.00 | 0.00 | 67 | 1023.5 |
| 20260502070305 | 55 | 16 | 0.0 | 0.0 | 0.00 | 0.00 | 0.00 | 67 | 1023.5 |
| 20260502065306 | 54 | 16 | 0.0 | 0.0 | 0.00 | 0.00 | 0.00 | 71 | 1023.5 |
| 20260502064804 | 53 | 16 | 0.0 | 0.0 | 0.00 | 0.00 | 0.00 | 71 | 1023.6 |
| 20260502064305 | 53 | 16 | 0.0 | 0.0 | 0.00 | 0.00 | 0.00 | 72 | 1023.5 |
| 20260502063805 | 52 | 16 | 0.0 | 0.0 | 0.00 | 0.00 | 0.00 | 73 | 1023.5 |
| 20260502063307 | 51 | 16 | 0.0 | 0.0 | 0.00 | 0.00 | 0.00 | 73 | 1023.6 |
| 20260502062805 | 51 | 16 | 0.0 | 0.0 | 0.00 | 0.00 | 0.00 | 73 | 1023.6 |
| 20260502062307 | 50 | 16 | 0.0 | 0.0 | 0.00 | 0.00 | 0.00 | 75 | 1023.6 |
| 20260502061806 | 50 | 16 | 0.0 | 0.0 | 0.00 | 0.00 | 0.00 | 76 | 1023.7 |
| 20260502061307 | 49 | 16 | 0.0 | 0.0 | 0.00 | 0.00 | 0.00 | 77 | 1023.7 |
| 20260502060805 | 49 | 16 | 0.0 | 0.0 | 0.00 | 0.00 | 0.00 | 78 | 1023.5 |
| 20260502060305 | 49 | 16 | 0.0 | 0.0 | 0.00 | 0.00 | 0.00 | 78 | 1023.5 |
| 20260502055804 | 48 | 16 | 0.0 | 0.0 | 0.00 | 0.00 | 0.00 | 79 | 1023.6 |
| 20260502055306 | 48 | 16 | 0.0 | 0.0 | 0.00 | 0.00 | 0.00 | 79 | 1023.6 |
| 20260502054305 | 47 | 16 | 0.0 | 0.0 | 0.00 | 0.00 | 0.00 | 81 | 1023.6 |
| 20260502053303 | 46 | 16 | 0.0 | 0.0 | 0.00 | 0.00 | 0.00 | 82 | 1023.7 |
| 20260502052800 | 46 | 16 | 0.0 | 0.0 | 0.00 | 0.00 | 0.00 | 83 | 1023.7 |
| 20260502052256 | 45 | 16 | 0.0 | 0.0 | 0.00 | 0.00 | 0.00 | 83 | 1023.7 |
| 20260502051753 | 45 | 16 | 0.0 | 0.0 | 0.00 | 0.00 | 0.00 | 84 | 1023.6 |
| 20260502051253 | 45 | 16 | 0.0 | 0.0 | 0.00 | 0.00 | 0.00 | 84 | 1023.6 |
| 20260502050246 | 44 | 16 | 0.0 | 0.0 | 0.00 | 0.00 | 0.00 | 84 | 1023.5 |
| 20260502045235 | 44 | 16 | 0.0 | 0.0 | 0.00 | 0.00 | 0.00 | 84 | 1023.4 |
| 20260502044731 | 44 | 16 | 0.0 | 0.0 | 0.00 | 0.00 | 0.00 | 84 | 1023.4 |
| 20260502043731 | 43 | 16 | 0.0 | 0.0 | 0.00 | 0.00 | 0.00 | 84 | 1023.4 |
| 20260502043232 | 43 | 16 | 0.0 | 0.0 | 0.00 | 0.00 | 0.00 | 84 | 1023.4 |
| 20260502042732 | 43 | 16 | 0.0 | 0.0 | 0.00 | 0.00 | 0.00 | 84 | 1023.3 |
| 20260502042231 | 43 | 16 | 0.0 | 0.0 | 0.00 | 0.00 | 0.00 | 84 | 1023.3 |
| 20260502041231 | 43 | 16 | 0.0 | 0.0 | 0.00 | 0.00 | 0.00 | 84 | 1023.4 |
| 20260502040731 | 43 | 16 | 0.0 | 0.0 | 0.00 | 0.00 | 0.00 | 83 | 1023.3 |
| 20260502040231 | 43 | 16 | 0.0 | 0.0 | 0.00 | 0.00 | 0.00 | 83 | 1023.2 |
| 20260502035733 | 44 | 16 | 0.0 | 0.0 | 0.00 | 0.00 | 0.00 | 83 | 1023.2 |
| 20260502035233 | 44 | 16 | 0.0 | 0.0 | 0.00 | 0.00 | 0.00 | 83 | 1023.3 |
| 20260502034733 | 44 | 16 | 0.0 | 0.0 | 0.00 | 0.00 | 0.00 | 84 | 1023.2 |
| 20260502034232 | 44 | 16 | 0.0 | 0.0 | 0.00 | 0.00 | 0.00 | 83 | 1023.3 |
| 20260502033731 | 43 | 16 | 0.0 | 0.0 | 0.00 | 0.00 | 0.00 | 83 | 1023.2 |
| 20260502033228 | 44 | 16 | 0.0 | 0.0 | 0.00 | 0.00 | 0.00 | 83 | 1023.3 |
| 20260502032725 | 44 | 16 | 0.0 | 0.0 | 0.00 | 0.00 | 0.00 | 82 | 1023.2 |
| 20260502032219 | 44 | 16 | 0.0 | 0.0 | 0.00 | 0.00 | 0.00 | 82 | 1023.3 |
| 20260502031714 | 44 | 16 | 0.0 | 0.0 | 0.00 | 0.00 | 0.00 | 82 | 1023.3 |
| 20260502031213 | 44 | 16 | 0.0 | 0.0 | 0.00 | 0.00 | 0.00 | 82 | 1023.2 |
| 20260502030705 | 44 | 16 | 0.0 | 0.0 | 0.00 | 0.00 | 0.00 | 82 | 1023.3 |
| 20260502030207 | 44 | 16 | 0.0 | 0.0 | 0.00 | 0.00 | 0.00 | 82 | 1023.3 |
| 20260502025703 | 44 | 16 | 0.0 | 0.0 | 0.00 | 0.00 | 0.00 | 81 | 1023.1 |
| 20260502025203 | 44 | 16 | 0.0 | 0.0 | 0.00 | 0.00 | 0.00 | 81 | 1023.3 |
| 20260502024702 | 45 | 16 | 0.0 | 0.0 | 0.00 | 0.00 | 0.00 | 81 | 1023.2 |
| 20260502023703 | 45 | 16 | 0.0 | 0.0 | 0.00 | 0.00 | 0.00 | 80 | 1023.2 |
| 20260502023205 | 45 | 16 | 0.0 | 0.0 | 0.00 | 0.00 | 0.00 | 80 | 1023.3 |
| 20260502022705 | 45 | 16 | 0.0 | 0.0 | 0.00 | 0.00 | 0.00 | 79 | 1023.3 |
| 20260502021704 | 45 | 16 | 0.0 | 0.0 | 0.00 | 0.00 | 0.00 | 79 | 1023.2 |
| 20260502021204 | 46 | 16 | 0.0 | 0.0 | 0.00 | 0.00 | 0.00 | 79 | 1023.3 |
| 20260502020703 | 46 | 16 | 0.0 | 0.0 | 0.00 | 0.00 | 0.00 | 79 | 1023.3 |
| 20260502020204 | 46 | 16 | 0.0 | 0.0 | 0.00 | 0.00 | 0.00 | 79 | 1023.2 |
| 20260502015703 | 46 | 16 | 0.0 | 0.0 | 0.00 | 0.00 | 0.00 | 79 | 1023.4 |
| 20260502015202 | 46 | 16 | 0.0 | 0.0 | 0.00 | 0.00 | 0.00 | 79 | 1023.3 |
| 20260502014701 | 46 | 16 | 0.0 | 0.0 | 0.00 | 0.00 | 0.00 | 78 | 1023.3 |
| 20260502014202 | 46 | 16 | 0.0 | 0.0 | 0.00 | 0.00 | 0.00 | 78 | 1023.3 |
| 20260502013702 | 46 | 16 | 0.0 | 0.0 | 0.00 | 0.00 | 0.00 | 78 | 1023.2 |
| 20260502013201 | 46 | 16 | 0.0 | 0.0 | 0.00 | 0.00 | 0.00 | 78 | 1023.3 |
| 20260502012658 | 47 | 16 | 0.0 | 0.0 | 0.00 | 0.00 | 0.00 | 78 | 1023.3 |
| 20260502012154 | 47 | 16 | 0.0 | 0.0 | 0.00 | 0.00 | 0.00 | 78 | 1023.4 |
| 20260502011653 | 47 | 16 | 0.0 | 0.0 | 0.00 | 0.00 | 0.00 | 78 | 1023.4 |
| 20260502011147 | 47 | 16 | 0.0 | 0.0 | 0.00 | 0.00 | 0.00 | 78 | 1023.4 |
| 20260502010639 | 47 | 16 | 0.0 | 0.0 | 0.00 | 0.00 | 0.00 | 78 | 1023.4 |
| 20260502010133 | 47 | 16 | 0.0 | 0.0 | 0.00 | 0.00 | 0.00 | 78 | 1023.3 |
| 20260502005631 | 47 | 16 | 0.0 | 0.0 | 0.00 | 0.00 | 0.00 | 78 | 1023.5 |
| 20260502005131 | 47 | 16 | 0.0 | 0.0 | 0.00 | 0.00 | 0.00 | 78 | 1023.3 |
| 20260502004630 | 47 | 16 | 0.0 | 0.0 | 0.00 | 0.00 | 0.00 | 77 | 1023.4 |
| 20260502004131 | 47 | 16 | 0.0 | 0.0 | 0.00 | 0.00 | 0.00 | 77 | 1023.4 |
| 20260502003631 | 47 | 16 | 0.0 | 0.0 | 0.00 | 0.00 | 0.00 | 77 | 1023.5 |
| 20260502003131 | 47 | 16 | 0.0 | 0.0 | 0.00 | 0.00 | 0.00 | 78 | 1023.5 |
| 20260502002631 | 47 | 16 | 0.0 | 0.0 | 0.00 | 0.00 | 0.00 | 78 | 1023.6 |
| 20260502002133 | 47 | 16 | 0.0 | 0.0 | 0.00 | 0.00 | 0.00 | 78 | 1023.4 |
| 20260502001631 | 47 | 16 | 0.0 | 0.0 | 0.00 | 0.00 | 0.00 | 78 | 1023.4 |
| 20260502000630 | 47 | 16 | 0.0 | 0.0 | 0.00 | 0.00 | 0.00 | 77 | 1023.4 |
| 20260502000127 | 47 | 16 | 0.0 | 0.0 | 0.00 | 0.00 | 0.00 | 76 | 1023.5 |
| 20260501235625 | 48 | 16 | 0.0 | 0.0 | 0.00 | 0.00 | 0.00 | 76 | 1023.5 |
| 20260501235122 | 48 | 16 | 0.0 | 0.0 | 0.00 | 0.00 | 0.00 | 74 | 1023.6 |
| 20260501234620 | 49 | 16 | 0.0 | 0.0 | 0.00 | 0.00 | 0.00 | 74 | 1023.7 |
| 20260501234116 | 49 | 16 | 0.0 | 0.0 | 0.00 | 0.00 | 0.00 | 74 | 1023.6 |
| 20260501233613 | 49 | 16 | 0.0 | 0.0 | 0.00 | 0.00 | 0.00 | 74 | 1023.5 |
| 20260501233109 | 49 | 16 | 0.0 | 0.0 | 0.00 | 0.00 | 0.00 | 74 | 1023.5 |
| 20260501232604 | 49 | 16 | 0.0 | 0.0 | 0.00 | 0.00 | 0.00 | 74 | 1023.4 |
| 20260501231101 | 50 | 16 | 0.0 | 0.0 | 0.00 | 0.00 | 0.00 | 72 | 1023.5 |
| 20260501230602 | 50 | 16 | 0.0 | 0.0 | 0.00 | 0.00 | 0.00 | 72 | 1023.4 |
| 20260501225602 | 50 | 16 | 0.0 | 0.0 | 0.00 | 0.00 | 0.00 | 72 | 1023.4 |
| 20260501225103 | 50 | 16 | 0.0 | 0.0 | 0.00 | 0.00 | 0.00 | 72 | 1023.4 |
| 20260501224602 | 50 | 16 | 0.0 | 0.0 | 0.00 | 0.00 | 0.00 | 72 | 1023.4 |
| 20260501224058 | 50 | 16 | 0.0 | 0.0 | 0.00 | 0.00 | 0.00 | 71 | 1023.4 |
| 20260501223556 | 50 | 16 | 0.0 | 0.0 | 0.00 | 0.00 | 0.00 | 71 | 1023.4 |
| 20260501223053 | 51 | 16 | 0.0 | 0.0 | 0.00 | 0.00 | 0.00 | 70 | 1023.5 |
| 20260501222550 | 51 | 16 | 0.0 | 0.0 | 0.00 | 0.00 | 0.00 | 68 | 1023.5 |
| 20260501222041 | 52 | 16 | 0.0 | 0.0 | 0.00 | 0.00 | 0.00 | 68 | 1023.4 |
| 20260501221538 | 52 | 16 | 0.0 | 0.0 | 0.00 | 0.00 | 0.00 | 68 | 1023.3 |
| 20260501221036 | 52 | 16 | 0.0 | 0.0 | 0.00 | 0.00 | 0.00 | 68 | 1023.4 |
| 20260501220533 | 52 | 16 | 0.0 | 0.0 | 0.00 | 0.00 | 0.00 | 68 | 1023.3 |
| 20260501215533 | 51 | 16 | 0.0 | 0.0 | 0.00 | 0.00 | 0.00 | 66 | 1023.3 |
| 20260501214530 | 52 | 16 | 0.0 | 0.0 | 0.00 | 0.00 | 0.00 | 66 | 1023.2 |
| 20260501214033 | 52 | 16 | 0.0 | 0.0 | 0.00 | 0.00 | 0.00 | 66 | 1023.2 |
| 20260501213022 | 52 | 16 | 0.0 | 0.0 | 0.00 | 0.00 | 0.00 | 65 | 1023.3 |
| 20260501212519 | 52 | 16 | 0.0 | 0.0 | 0.00 | 0.00 | 0.00 | 65 | 1023.3 |
| 20260501212016 | 53 | 16 | 0.0 | 0.0 | 0.00 | 0.00 | 0.00 | 65 | 1023.3 |
| 20260501211514 | 53 | 16 | 0.0 | 0.0 | 0.00 | 0.00 | 0.00 | 64 | 1023.3 |
| 20260501211005 | 53 | 16 | 0.0 | 0.0 | 0.00 | 0.00 | 0.00 | 64 | 1023.4 |
| 20260501205500 | 53 | 16 | 0.0 | 0.0 | 0.00 | 0.00 | 0.00 | 63 | 1023.3 |
| 20260501204953 | 54 | 16 | 0.0 | 0.0 | 0.00 | 0.00 | 0.00 | 61 | 1023.3 |
| 20260501204450 | 55 | 16 | 0.0 | 0.0 | 0.00 | 0.00 | 0.00 | 61 | 1023.3 |
| 20260501203936 | 54 | 16 | 0.0 | 0.0 | 0.00 | 0.00 | 0.00 | 62 | 1023.3 |
| 20260501203434 | 54 | 16 | 0.0 | 0.0 | 0.00 | 0.00 | 0.00 | 62 | 1023.2 |
| 20260501202933 | 55 | 16 | 0.0 | 0.0 | 0.00 | 0.00 | 0.00 | 61 | 1023.1 |
| 20260501202435 | 55 | 16 | 0.0 | 0.0 | 0.00 | 0.00 | 0.00 | 61 | 1023.1 |
| 20260501200926 | 55 | 16 | 0.0 | 0.0 | 0.00 | 0.00 | 0.00 | 60 | 1023.1 |